Randolph AFB, TX

2:33 AM CDT on June 26, 2017 (GMT -0500)
Randolph Air Force Base

Weather History for KRND - February, 2013

Change the Weather History Date:

Saturday, February 9, 2013

  Actual Average Record
Temperature  
Mean Temperature 60 °F -  
Max Temperature 69 °F 62 °F 81 °F (2015)
Min Temperature 51 °F 43 °F 24 °F (2011)
Degree Days  
Heating Degree Days 5    
Growing Degree Days 10 (Base 50)    
Moisture  
Dew Point 57 °F    
Average Humidity 96    
Maximum Humidity 100    
Minimum Humidity 58    
Precipitation  
Precipitation 0.02 in - - ()
Sea Level Pressure  
Sea Level Pressure 29.96 in    
Wind  
Wind Speed 7 mph (ESE)    
Max Wind Speed 16 mph    
Max Gust Speed 23 mph    
Visibility 8 miles    
Events Rain    
Averages and records for this station are not official NWS values.
T = Trace of Precipitation, MM = Missing Value Source: NWS Daily Summary

Daily Weather History Graph

Daily Weather History Graph

Search for Another Location

Airport or City:

Trip Planner

Search our weather history database for the weather conditions in past years. The results will help you decide how hot, cold, wet, or windy it might be!

Date:

Astronomy

Feb. 09, 2013 Rise Set
Actual Time 7:17 AM CST 6:17 PM CST
Civil Twilight 6:52 AM CST 6:42 PM CST
Nautical Twilight 6:24 AM CST 7:10 PM CST
Astronomical Twilight 5:56 AM CST 7:38 PM CST
Moon 6:30 AM CST (2/9) 5:59 PM CST (2/9)
Length of Visible Light 11h 50m
Length of Day
11h 00m
Waning Crescent, 0% of the Moon is Illuminated
Feb 9
Waning Crescent
Feb 10
New
Feb 17
First Quarter
Feb 25
Full
Mar 4
Last Quarter

Hourly Weather History & Observations

Time (CST) Temp. Dew Point Humidity Pressure Visibility Wind Dir Wind Speed Gust Speed Precip Events Conditions
12:55 AM 51.4 °F 36.9 °F 58% 30.07 in 10.0 mi NE 4.6 mph - N/A   Partly Cloudy
1:55 AM 51.8 °F 41.0 °F 67% 30.08 in 10.0 mi ENE 4.6 mph - N/A   Mostly Cloudy
2:55 AM 51.8 °F 44.2 °F 75% 30.06 in 10.0 mi NE 5.8 mph - N/A   Mostly Cloudy
2:56 AM 51.8 °F 44.6 °F 76% 30.06 in 10.0 mi NE 5.8 mph - N/A   Mostly Cloudy
2:58 AM 51.8 °F 44.6 °F 76% 30.06 in 10.0 mi NE 4.6 mph - N/A   Mostly Cloudy
2:59 AM 51.8 °F 44.6 °F 76% 30.06 in 10.0 mi ENE 5.8 mph - N/A   Mostly Cloudy
3:05 AM 51.8 °F 44.6 °F 76% 30.06 in 10.0 mi NE 4.6 mph - N/A   Mostly Cloudy
3:12 AM 53.6 °F 46.4 °F 77% 30.07 in 10.0 mi NE 3.5 mph - N/A   Overcast
3:30 AM 53.6 °F 48.2 °F 82% 30.06 in 10.0 mi ENE 4.6 mph - N/A   Overcast
3:39 AM 53.6 °F 50.0 °F 88% 30.06 in 10.0 mi ENE 3.5 mph - N/A   Overcast
3:55 AM 53.1 °F 49.8 °F 89% 30.05 in 10.0 mi ENE 3.5 mph - N/A   Overcast
4:03 AM 53.6 °F 50.0 °F 88% 30.05 in 10.0 mi Calm Calm - N/A   Overcast
4:55 AM 54.9 °F 53.4 °F 95% 30.06 in 10.0 mi ESE 6.9 mph - N/A   Overcast
5:55 AM 55.8 °F 55.2 °F 98% 30.04 in 10.0 mi East 5.8 mph - N/A   Overcast
6:55 AM 55.4 °F 55.2 °F 99% 30.04 in 10.0 mi East 5.8 mph - N/A   Overcast
7:02 AM 55.4 °F 55.4 °F 100% 30.03 in 10.0 mi East 8.1 mph - N/A   Overcast
7:26 AM 55.4 °F 55.4 °F 100% 30.03 in 10.0 mi East 8.1 mph - N/A   Overcast
7:45 AM 55.4 °F 55.4 °F 100% 30.04 in 10.0 mi East 6.9 mph - N/A   Overcast
7:55 AM 54.9 °F 54.5 °F 99% 30.05 in 10.0 mi ENE 5.8 mph - N/A   Overcast
8:42 AM 55.4 °F 55.4 °F 100% 30.04 in 10.0 mi ENE 5.8 mph - N/A   Overcast
8:55 AM 55.2 °F 54.9 °F 99% 30.04 in 10.0 mi East 4.6 mph - 0.00 in   Light Drizzle
9:12 AM 55.4 °F 55.4 °F 100% 30.04 in 9.0 mi ENE 4.6 mph - N/A   Light Drizzle
9:38 AM 55.4 °F 55.4 °F 100% 30.03 in 8.0 mi East 4.6 mph - N/A   Overcast
9:40 AM 55.4 °F 55.4 °F 100% 30.03 in 9.0 mi East 4.6 mph - N/A   Overcast
9:55 AM 55.6 °F 55.6 °F 100% 30.03 in 10.0 mi Variable 3.5 mph - 0.00 in   Overcast
10:29 AM 57.2 °F 57.2 °F 100% 30.02 in 9.0 mi ESE 8.1 mph - N/A   Light Drizzle
10:36 AM 57.2 °F 57.2 °F 100% 30.02 in 9.0 mi ESE 5.8 mph - N/A   Overcast
10:42 AM 57.2 °F 57.2 °F 100% 30.02 in 10.0 mi East 6.9 mph - N/A   Overcast
10:51 AM 57.2 °F 57.2 °F 100% 30.02 in 8.0 mi ESE 6.9 mph - N/A   Light Drizzle
10:55 AM 56.7 °F 56.7 °F 100% 30.02 in 8.0 mi ESE 8.1 mph - 0.00 in   Light Drizzle
11:00 AM 57.2 °F 57.2 °F 100% 30.01 in 8.0 mi ESE 9.2 mph - N/A   Overcast
11:23 AM 57.2 °F 57.2 °F 100% 30.01 in 9.0 mi ESE 8.1 mph - N/A Rain Light Rain
11:37 AM 57.2 °F 57.2 °F 100% 30.00 in 10.0 mi ESE 8.1 mph - N/A   Overcast
11:49 AM 57.2 °F 57.2 °F 100% 29.99 in 7.0 mi SE 8.1 mph - N/A   Light Drizzle
11:54 AM 57.2 °F 57.2 °F 100% 29.99 in 4.0 mi SE 8.1 mph - N/A   Light Drizzle
11:55 AM 57.7 °F 57.7 °F 100% 29.99 in 4.0 mi SE 8.1 mph - 0.01 in   Light Drizzle
12:00 PM 57.2 °F 57.2 °F 100% 29.99 in 5.0 mi ESE 8.1 mph - N/A   Light Drizzle
12:07 PM 57.2 °F 57.2 °F 100% 29.99 in 8.0 mi SE 8.1 mph - N/A   Light Drizzle
12:11 PM 57.2 °F 57.2 °F 100% 29.99 in 10.0 mi SE 8.1 mph - N/A   Overcast
12:20 PM 59.0 °F 59.0 °F 100% 29.98 in 8.0 mi ESE 6.9 mph - N/A   Light Drizzle
12:31 PM 59.0 °F 59.0 °F 100% 29.97 in 10.0 mi SE 8.1 mph - N/A   Overcast
12:40 PM 59.0 °F 59.0 °F 100% 29.96 in 10.0 mi SE 10.4 mph - N/A   Light Drizzle
12:47 PM 59.0 °F 59.0 °F 100% 29.96 in 9.0 mi SE 9.2 mph - N/A   Overcast
12:48 PM 59.0 °F 59.0 °F 100% 29.96 in 9.0 mi SE 9.2 mph - N/A   Light Drizzle
12:55 PM 59.0 °F 59.0 °F 100% 29.96 in 8.0 mi SE 6.9 mph - 0.00 in   Light Drizzle
1:01 PM 59.0 °F 59.0 °F 100% 29.95 in 9.0 mi ESE 6.9 mph - N/A   Overcast
1:07 PM 59.0 °F 59.0 °F 100% 29.95 in 9.0 mi SE 9.2 mph - N/A Rain Light Rain
1:18 PM 59.0 °F 59.0 °F 100% 29.94 in 9.0 mi SE 9.2 mph - N/A   Overcast
1:27 PM 59.0 °F 59.0 °F 100% 29.93 in 7.0 mi SE 10.4 mph - N/A   Overcast
1:29 PM 59.0 °F 59.0 °F 100% 29.93 in 6.0 mi ESE 10.4 mph - N/A   Light Drizzle
1:36 PM 59.0 °F 59.0 °F 100% 29.92 in 4.0 mi SE 9.2 mph - N/A   Light Drizzle
1:39 PM 60.8 °F 60.8 °F 100% 29.91 in 4.0 mi SE 10.4 mph - N/A   Overcast
1:47 PM 60.8 °F 60.8 °F 100% 29.91 in 4.0 mi ESE 9.2 mph - N/A   Overcast
1:55 PM 60.1 °F 60.1 °F 100% 29.91 in 4.0 mi SE 6.9 mph - 0.01 in   Overcast
2:05 PM 60.8 °F 60.8 °F 100% 29.90 in 3.0 mi SE 8.1 mph - N/A   Light Drizzle
2:12 PM 60.8 °F 60.8 °F 100% 29.90 in 2.5 mi SE 9.2 mph - N/A   Light Drizzle
2:15 PM 60.8 °F 60.8 °F 100% 29.90 in 2.5 mi SE 6.9 mph - N/A   Overcast
2:54 PM 60.8 °F 60.8 °F 100% 29.87 in 2.0 mi SE 9.2 mph - N/A   Overcast
2:55 PM 61.3 °F 61.3 °F 100% 29.87 in 2.0 mi SE 10.4 mph - 0.00 in   Overcast
3:10 PM 62.6 °F 62.6 °F 100% 29.86 in 1.8 mi SE 8.1 mph - N/A   Overcast
3:32 PM 62.6 °F 62.6 °F 100% 29.85 in 1.5 mi ESE 4.6 mph - N/A   Overcast
3:34 PM 62.6 °F 62.6 °F 100% 29.85 in 1.8 mi SE 5.8 mph - N/A   Overcast
3:35 PM 62.6 °F 62.6 °F 100% 29.85 in 1.8 mi SE 4.6 mph - N/A   Light Drizzle
3:46 PM 62.6 °F 62.6 °F 100% 29.84 in 2.0 mi SE 8.1 mph - N/A   Light Drizzle
3:47 PM 62.6 °F 62.6 °F 100% 29.84 in 2.0 mi SE 8.1 mph - N/A   Overcast
3:49 PM 62.6 °F 62.6 °F 100% 29.84 in 1.8 mi SE 6.9 mph - N/A   Overcast
10:13 PM 68.0 °F 68.0 °F 100% 29.79 in 10.0 mi SE 15.0 mph 23.0 mph N/A   Overcast
10:47 PM 69.8 °F 69.8 °F 100% 29.79 in 10.0 mi SSE 13.8 mph 23.0 mph N/A   Overcast
10:55 PM 68.7 °F 68.7 °F 100% 29.79 in 10.0 mi SSE 13.8 mph - N/A   Overcast
11:03 PM 68.0 °F 68.0 °F 100% 29.79 in 10.0 mi SSE 13.8 mph 20.7 mph N/A   Light Drizzle
11:33 PM 68.0 °F 68.0 °F 100% 29.78 in 10.0 mi SSE 13.8 mph - N/A   Light Drizzle
11:34 PM 68.0 °F 68.0 °F 100% 29.79 in 10.0 mi SSE 16.1 mph - N/A   Overcast
11:55 PM 68.7 °F 68.7 °F 100% 29.79 in 10.0 mi SSE 11.5 mph - 0.00 in   Overcast